Regional Weather Roundup
Issued by NWS

Home | Current Version | Previous Version | Text Only | Print | Product List | Glossary On
Versions: 1 2 3 4 5 6 7 8 9 10 11 12 13 14 15 16 17 18 19 20 21 22 23 24 25 26 27 28 29 30 31 32 33 34 35 36 37 38 39 40 41 42 43 44 45 46 47 48 49 50
912
ASUS44 KJAN 291210
RWRMS

MISSISSIPPI HOURLY WEATHER ROUNDUP
NATIONAL WEATHER SERVICE JACKSON MS
700 AM CDT SUN MAR 29 2015

NOTE: "FAIR: INDICATES FEW OR NO CLOUDS BELOW 12,000 FEET WITH NO
SIGNIFICANT WEATHER AND/OR OBSTRUCTIONS TO VISIBILITY.

MSZ001>002-007>008-010>013-018>021-025>028-034>036-291300-
NORTHWEST MISSISSIPPI

CITY           SKY/WX    TMP DP  RH WIND       PRES   REMARKS
CLARKSDALE     CLOUDY    41  32  70 E9        30.26R
CLEVELAND      CLOUDY    44  34  68 SE10      30.24S
GREENWOOD      CLOUDY    45  28  51 SE8       30.27R
6HR MIN TEMP:  39; 6HR MAX TEMP:  45;

GREENVILLE     CLOUDY    45  33  63 SE12      30.23S
6HR MIN TEMP:  41; 6HR MAX TEMP:  45;

OLIVE BRANCH   PTCLDY    32  30  93 CALM      30.25S
OXFORD         FAIR      37  27  65 SE8       30.29R WCI  31
TUNICA         PTSUNNY   36  32  87 SE6       30.26S WCI  31
$$

MSZ003>006-009-014>017-022>024-029>033-037>039-291300-
NORTHEAST MISSISSIPPI

CITY           SKY/WX    TMP DP  RH WIND       PRES   REMARKS
COLUMBUS AFB   MOCLDY    41  32  70 E6        30.32R
6HR MIN TEMP:  35; 6HR MAX TEMP:  41;

CORINTH        FAIR      30  27  86 SE5       30.30S WCI  25
GOLDN TRIANGLE MOCLDY    43  28  56 SE12      30.30R
STARKVILLE     CLOUDY    41  32  70 SE6       30.31R
TUPELO         CLOUDY    38  28  67 S8        30.30S WCI  32
6HR MIN TEMP:  34; 6HR MAX TEMP:  39;

$$

MSZ040-058-291300-
CENTRAL MISSISSIPPI

CITY           SKY/WX    TMP DP  RH WIND       PRES   REMARKS
JACKSON INTL   MOCLDY    45  30  55 SE10      30.27R
6HR MIN TEMP:  42; 6HR MAX TEMP:  45;

JACKSON HAWKNS CLOUDY    44  30  57 SE10      30.27R
6HR MIN TEMP:  43; 6HR MAX TEMP:  45;

MERIDIAN KEY   CLOUDY    44  28  53 E6        30.32R
6HR MIN TEMP:  37; 6HR MAX TEMP:  44;

MERIDIAN NAS   NOT AVBL
RAYMOND        FAIR      43  39  87 SE8       30.26R
VICKSBURG      CLOUDY    46  34  62 SE13      30.26R
6HR MIN TEMP:  45; 6HR MAX TEMP:  48; 6HR PCP: TRACE;

$$

MSZ059>079-291300-
SOUTH MISSISSIPPI

CITY           SKY/WX    TMP DP  RH WIND       PRES   REMARKS
BROOKHAVEN     FAIR      43  34  70 E5        30.28R
HATTIESBURG    CLEAR     39  35  86 CALM      30.33R
6HR MIN TEMP:  39; 6HR MAX TEMP:  45;

MCCOMB         MOCLDY    44  33  65 SE6       30.27R
6HR MIN TEMP:  43; 6HR MAX TEMP:  50;

NATCHEZ        CLOUDY    48  36  61 SE8       30.24R
6HR MIN TEMP:  46; 6HR MAX TEMP:  54;

PINE BELT      CLEAR     39  30  70 E3        30.32R
6HR MIN TEMP:  37; 6HR MAX TEMP:  41;

$$

MSZ080>082-291300-
COASTAL MISSISSIPPI

CITY           SKY/WX    TMP DP  RH WIND       PRES   REMARKS
BAY ST LOUIS   CLEAR     45  32  61 E5        30.30
BILOXI         CLEAR     46  36  69 E10       30.31R
6HR MIN TEMP:  46; 6HR MAX TEMP:  51;

PASCAGOULA     CLEAR     43  36  76 NE3       30.33R
6HR MIN TEMP:  43; 6HR MAX TEMP:  47;

GULFPORT       CLEAR     46  35  65 E7        30.31R
6HR MIN TEMP:  46; 6HR MAX TEMP:  51;

$$



USA.gov is the U.S. government's official web portal to all federal, state and local government web resources and services.